Regional Weather Roundup
Issued by NWS

Home | Current Version | Previous Version | Text Only | Print | Product List | Glossary On
Versions: 1 2 3 4 5 6 7 8 9 10 11 12 13 14 15 16 17 18 19 20 21 22 23 24 25 26 27 28 29
000
ASUS46 KSEW 040210
RWRWA

WASHINGTON REGIONAL WEATHER ROUNDUP
NATIONAL WEATHER SERVICE SEATTLE WA
700 PM PDT TUE MAY 03 2016

NOTE:"FAIR" INDICATES FEW OR NO CLOUDS BELOW 12,000 FEET WITH NO
SIGNIFICANT WEATHER AND/OR OBSTRUCTIONS TO VISIBILITY.

WAZ505-507>509-040300-
SEATTLE, TACOMA, EVERETT, AND VICINITY

CITY           SKY/WX    TMP DP  RH WIND       PRES   REMARKS
EVERETT        CLOUDY    56  50  80 N8        30.06R
BOEING FIELD   CLOUDY    65  53  65 W7        30.03R
RENTON         CLOUDY    69  52  54 NW10      30.02R
SEATAC AIRPORT CLOUDY    65  52  62 NW7       30.04S
JBLM-MCCHORD   CLOUDY    64  53  67 W10       30.04S
PUYALLUP       FAIR      64  55  72 VRB3      30.04S
BREMERTON      CLOUDY    63  52  67 S5        30.06S
JBLM-FT LEWIS  CLOUDY    63  53  69 W9        30.03F
TACOMA NARROWS CLOUDY    63  51  65 SW6       30.04S
$$

WAZ001-503-506-510-514-515-040300-
NORTH INTERIOR

CITY           SKY/WX    TMP DP  RH WIND       PRES   REMARKS
BELLINGHAM     CLOUDY    64  52  64 S3        30.03F
FRIDAY HARBOR  CLOUDY    59  49  69 W7        30.04F
EASTSOUND      CLOUDY    61  54  77 E3        30.02F
PORT ANGELES   CLOUDY    53  47  79 W16       30.09F
EDIZ HOOK      FAIR      54  47  79 W21G28    30.08S
PORT TOWNSEND  FAIR      57  50  77 NW12G18   30.06S
NAS WHIDBEY    CLOUDY    56  50  80 SW6       30.09S
ARLINGTON      CLOUDY    59  46  63 NW10      30.07R
BURLINGTON     SUNNY     59  50  72 S8        30.05S
$$

WAZ020-022-039-040-504-511-512-040300-
SOUTHWEST INTERIOR

CITY           SKY/WX    TMP DP  RH WIND       PRES   REMARKS
SHELTON        CLOUDY    61  49  64 SW10      30.02S
OLYMPIA        CLOUDY    63  50  62 SW8       30.05R
CHEHALIS       PTSUNNY   63  54  72 NW6       30.06R
KELSO          CLOUDY    61  48  63 W9        30.09R
VANCOUVER      CLOUDY    67  53  61 NW8       30.01R
SCAPPOOSE, OR  CLOUDY    65  51  60 NW8       30.01R
PORTLAND, OR   CLOUDY    67  53  61 N8        30.01S
$$

WAZ021-516-517-040300-
WASHINGTON COAST

CITY           SKY/WX    TMP DP  RH WIND       PRES   REMARKS
FORKS          CLOUDY    53  47  79 NW6       30.13S
HOQUIAM        CLOUDY    55  49  80 W14       30.10R HAZE
ASTORIA, OR    CLOUDY    57  50  77 NW12      30.10R
$$

WAZ019-023-024-040-518-519-040300-
CASCADE MOUNTAINS AND COLUMBIA GORGE

CITY           SKY/WX    TMP DP  RH WIND       PRES   REMARKS
STAMPEDE PASS  CLOUDY    51  45  79 SW6       30.09R
TROUTDALE, OR  CLOUDY    69  51  52 VRB3      30.01R
THE DALLES, OR CLOUDY    71  47  42 NW14      29.93R
$$

WAZ026-027-041>044-520-521-040300-
EAST SLOPES

CITY           SKY/WX    TMP DP  RH WIND       PRES   REMARKS
OMAK           PTSUNNY   79  38  22 S8        29.89F
WENATCHEE      CLOUDY    73  44  35 NW15      29.92R
ELLENSBURG     CLOUDY    68  48  48 NW18      29.95R
YAKIMA         CLOUDY    76  47  35 CALM      29.90F
$$

WAZ028-034-035-040300-
COLUMBIA BASIN

CITY           SKY/WX    TMP DP  RH WIND       PRES   REMARKS
EPHRATA        PTSUNNY   81  38  21 SW6       29.88F
MOSES LAKE     PTSUNNY   82  35  18 SW5       29.88F
PASCO          MOSUNNY   82  50  32 N5        29.82F
HERMISTON, OR  MOSUNNY   86  42  21 NW7       29.82F
$$

WAZ036>038-040300-
NORTHEAST WASHINGTON

CITY           SKY/WX    TMP DP  RH WIND       PRES   REMARKS
SPOKANE GEIGER MOCLDY    78  35  21 S7        29.95F
SPOKANE FELTS  CLEAR     80  33  18 SW8       29.94F
FAIRCHILD AFB  PTCLDY    74  38  26 SW9       29.96F
COEURDALENE,ID CLEAR     77  43  29 W9        29.92S
DEER PARK      PTCLDY    76  35  22 SW8       29.95F
$$

WAZ029>033-040300-
SOUTHEAST WASHINGTON

CITY           SKY/WX    TMP DP  RH WIND       PRES   REMARKS
PULLMAN        CLEAR     74  41  30 S5        29.98F
LEWISTON, ID   CLEAR     82  42  24 E5        29.90F
WALLA WALLA    PTCLDY    77  51  40 E10       29.86F
PENDLETON, OR  MOSUNNY   82  36  19 E13       29.84F
$$




USA.gov is the U.S. government's official web portal to all federal, state and local government web resources and services.